• In Österreich
  • Länderverzeichnis
  • Für 7 Tage
  • Wassertemperatur
  • Satellitenkarten
  • Wetterkarte
  • News
  • Widgets
  • user-avatar
    Anmelden

    Stündliche Wetter Chyhrynivka

    Heute, 22 Juni, Freitag

    Zeit Temperatur Niederschläge Wind Luftdruck Luftfeuchtigkeit
    00:00 +23°C° 0 mm 2 m/S 748 mmHg 58%
    01:00 +21°C° 0 mm 2 m/S 748 mmHg 59%
    02:00 +21°C° 0 mm 2 m/S 748 mmHg 61%
    03:00 +21°C° 0 mm 2 m/S 748 mmHg 63%
    04:00 +21°C° 0 mm 2 m/S 748 mmHg 65%
    05:00 +21°C° 0 mm 2 m/S 748 mmHg 68%
    06:00 +24°C° 0 mm 3 m/S 748 mmHg 63%
    07:00 +26°C° 0 mm 3 m/S 747 mmHg 58%
    08:00 +28°C° 0 mm 3 m/S 747 mmHg 53%
    09:00 +29°C° 0 mm 3 m/S 747 mmHg 48%
    10:00 +30°C° 0 mm 3 m/S 747 mmHg 43%
    11:00 +33°C° 0 mm 3 m/S 747 mmHg 38%
    12:00 +33°C° 0 mm 3 m/S 746 mmHg 38%
    13:00 +32°C° 0 mm 2 m/S 746 mmHg 38%
    14:00 +34°C° 0 mm 2 m/S 746 mmHg 38%
    15:00 +32°C° 0 mm 2 m/S 745 mmHg 42%
    16:00 +31°C° 0 mm 2 m/S 745 mmHg 45%
    17:00 +31°C° 0 mm 2 m/S 745 mmHg 49%
    18:00 +30°C° 0 mm 2 m/S 745 mmHg 51%
    19:00 +29°C° 0 mm 1 m/S 745 mmHg 54%
    20:00 +27°C° 0 mm 1 m/S 745 mmHg 56%
    21:00 +27°C° 0 mm 1 m/S 745 mmHg 56%
    22:00 +27°C° 0 mm 1 m/S 744 mmHg 56%
    23:00 +26°C° 0 mm 1 m/S 744 mmHg 57%

    Morgen, 23 Juni, Samstag

    Zeit Temperatur Niederschläge Wind Luftdruck Luftfeuchtigkeit
    00:00 +25°C° 1,2 mm 2 m/S 744 mmHg 65%
    01:00 +24°C° 1,2 mm 3 m/S 744 mmHg 73%
    02:00 +22°C° 1,2 mm 4 m/S 745 mmHg 81%
    03:00 +21°C° 1,2 mm 3 m/S 744 mmHg 83%
    04:00 +21°C° 1,2 mm 2 m/S 744 mmHg 86%
    05:00 +21°C° 1,2 mm 2 m/S 744 mmHg 88%
    06:00 +23°C° 0,2 mm 2 m/S 744 mmHg 83%
    07:00 +24°C° 0,2 mm 2 m/S 744 mmHg 78%
    08:00 +25°C° 0,2 mm 3 m/S 743 mmHg 73%
    09:00 +26°C° 0,8 mm 3 m/S 743 mmHg 69%
    10:00 +27°C° 0,8 mm 3 m/S 743 mmHg 64%
    11:00 +27°C° 0,8 mm 4 m/S 743 mmHg 59%
    12:00 +28°C° 0,8 mm 4 m/S 743 mmHg 58%
    13:00 +28°C° 0,8 mm 4 m/S 743 mmHg 58%
    14:00 +28°C° 0,8 mm 4 m/S 743 mmHg 57%
    15:00 +27°C° 0,9 mm 4 m/S 743 mmHg 62%
    16:00 +26°C° 0,9 mm 4 m/S 743 mmHg 68%
    17:00 +25°C° 0,9 mm 4 m/S 743 mmHg 74%
    18:00 +22°C° 0,3 mm 4 m/S 743 mmHg 78%
    19:00 +20°C° 0,3 mm 5 m/S 744 mmHg 82%
    20:00 +19°C° 0,3 mm 6 m/S 744 mmHg 86%
    21:00 +17°C° 0,1 mm 6 m/S 744 mmHg 86%
    22:00 +15°C° 0,1 mm 6 m/S 745 mmHg 86%
    23:00 +14°C° 0,1 mm 6 m/S 745 mmHg 86%

    übermorgen, 24 Juni, Sonntag

    Zeit Temperatur Niederschläge Wind Luftdruck Luftfeuchtigkeit
    00:00 +14°C° 0 mm 6 m/S 746 mmHg 85%
    01:00 +13°C° 0 mm 6 m/S 746 mmHg 85%
    02:00 +11°C° 0 mm 6 m/S 747 mmHg 85%
    03:00 +12°C° 0 mm 5 m/S 747 mmHg 85%
    04:00 +12°C° 0 mm 5 m/S 748 mmHg 85%
    05:00 +11°C° 0 mm 4 m/S 748 mmHg 85%
    06:00 +13°C° 0 mm 4 m/S 748 mmHg 78%
    07:00 +15°C° 0 mm 4 m/S 749 mmHg 71%
    08:00 +17°C° 0 mm 4 m/S 749 mmHg 64%
    09:00 +19°C° 0 mm 4 m/S 749 mmHg 59%
    10:00 +20°C° 0 mm 4 m/S 749 mmHg 54%
    11:00 +22°C° 0 mm 4 m/S 750 mmHg 49%
    12:00 +22°C° 0 mm 4 m/S 750 mmHg 47%
    13:00 +23°C° 0 mm 4 m/S 750 mmHg 45%
    14:00 +25°C° 0 mm 4 m/S 750 mmHg 43%
    15:00 +24°C° 0 mm 3 m/S 750 mmHg 44%
    16:00 +24°C° 0 mm 3 m/S 750 mmHg 45%
    17:00 +24°C° 0 mm 3 m/S 750 mmHg 46%
    18:00 +22°C° 0 mm 3 m/S 750 mmHg 52%
    19:00 +20°C° 0 mm 2 m/S 750 mmHg 57%
    20:00 +18°C° 0 mm 2 m/S 751 mmHg 63%
    21:00 +18°C° 0 mm 2 m/S 751 mmHg 65%
    22:00 +17°C° 0 mm 2 m/S 751 mmHg 67%
    23:00 +16°C° 0 mm 2 m/S 751 mmHg 70%

    25 Juni, Montag

    Zeit Temperatur Niederschläge Wind Luftdruck Luftfeuchtigkeit
    00:00 +16°C° 0 mm 2 m/S 752 mmHg 72%
    01:00 +15°C° 0 mm 2 m/S 752 mmHg 74%
    02:00 +15°C° 0 mm 2 m/S 752 mmHg 76%
    03:00 +15°C° 0 mm 2 m/S 752 mmHg 77%
    04:00 +15°C° 0 mm 1 m/S 752 mmHg 77%
    05:00 +15°C° 0 mm 1 m/S 752 mmHg 78%
    06:00 +18°C° 0 mm 1 m/S 753 mmHg 72%
    07:00 +19°C° 0 mm 2 m/S 753 mmHg 65%
    08:00 +21°C° 0 mm 2 m/S 753 mmHg 59%
    09:00 +23°C° 0 mm 2 m/S 753 mmHg 54%
    10:00 +24°C° 0 mm 2 m/S 753 mmHg 49%
    11:00 +25°C° 0 mm 2 m/S 753 mmHg 44%
    12:00 +25°C° 0 mm 2 m/S 753 mmHg 42%
    13:00 +26°C° 0 mm 2 m/S 753 mmHg 41%
    14:00 +26°C° 0 mm 2 m/S 753 mmHg 39%
    15:00 +26°C° 0 mm 2 m/S 753 mmHg 40%
    16:00 +26°C° 0 mm 3 m/S 753 mmHg 41%
    17:00 +26°C° 0 mm 3 m/S 752 mmHg 42%
    18:00 +24°C° 0 mm 3 m/S 753 mmHg 48%
    19:00 +22°C° 0 mm 3 m/S 753 mmHg 54%
    20:00 +20°C° 0 mm 3 m/S 753 mmHg 60%
    21:00 +19°C° 0 mm 3 m/S 753 mmHg 61%
    22:00 +19°C° 0 mm 3 m/S 753 mmHg 63%
    23:00 +18°C° 0 mm 3 m/S 753 mmHg 65%

    26 Juni, Dienstag

    Zeit Temperatur Niederschläge Wind Luftdruck Luftfeuchtigkeit
    00:00 +17°C° 0 mm 3 m/S 753 mmHg 67%
    01:00 +17°C° 0 mm 3 m/S 753 mmHg 69%
    02:00 +17°C° 0 mm 3 m/S 753 mmHg 72%
    03:00 +17°C° 0 mm 3 m/S 753 mmHg 73%
    04:00 +17°C° 0 mm 3 m/S 753 mmHg 74%
    05:00 +16°C° 0 mm 3 m/S 753 mmHg 76%
    06:00 +18°C° 0 mm 4 m/S 753 mmHg 70%
    07:00 +20°C° 0 mm 4 m/S 753 mmHg 65%
    08:00 +22°C° 0 mm 4 m/S 753 mmHg 59%
    09:00 +25°C° 0 mm 4 m/S 752 mmHg 55%
    10:00 +26°C° 0 mm 5 m/S 752 mmHg 50%
    11:00 +27°C° 0 mm 5 m/S 752 mmHg 46%
    12:00 +27°C° 0 mm 5 m/S 752 mmHg 45%
    13:00 +28°C° 0 mm 5 m/S 751 mmHg 44%
    14:00 +28°C° 0 mm 5 m/S 751 mmHg 43%
    15:00 +28°C° 0 mm 5 m/S 750 mmHg 45%
    16:00 +28°C° 0 mm 5 m/S 750 mmHg 46%
    17:00 +27°C° 0 mm 6 m/S 750 mmHg 48%
    18:00 +26°C° 0 mm 5 m/S 750 mmHg 54%
    19:00 +23°C° 0 mm 5 m/S 750 mmHg 60%
    20:00 +22°C° 0 mm 4 m/S 750 mmHg 67%
    21:00 +21°C° 0 mm 4 m/S 749 mmHg 68%
    22:00 +21°C° 0 mm 5 m/S 749 mmHg 70%
    23:00 +20°C° 0 mm 5 m/S 749 mmHg 71%

    27 Juni, Mittwoch

    Zeit Temperatur Niederschläge Wind Luftdruck Luftfeuchtigkeit
    00:00 +20°C° 0,1 mm 5 m/S 749 mmHg 73%
    01:00 +19°C° 0,1 mm 5 m/S 748 mmHg 75%
    02:00 +19°C° 0,1 mm 5 m/S 748 mmHg 76%
    03:00 +19°C° 0,7 mm 6 m/S 748 mmHg 78%
    04:00 +17°C° 0,7 mm 6 m/S 748 mmHg 80%
    05:00 +17°C° 0,7 mm 6 m/S 747 mmHg 82%
    06:00 +19°C° 1,2 mm 6 m/S 747 mmHg 82%
    07:00 +20°C° 1,2 mm 7 m/S 747 mmHg 83%
    08:00 +20°C° 1,2 mm 7 m/S 746 mmHg 83%
    09:00 +22°C° 1 mm 7 m/S 746 mmHg 81%
    10:00 +23°C° 1 mm 7 m/S 746 mmHg 79%
    11:00 +24°C° 1 mm 8 m/S 745 mmHg 77%
    12:00 +26°C° 0,4 mm 8 m/S 745 mmHg 74%
    13:00 +27°C° 0,4 mm 8 m/S 745 mmHg 71%
    14:00 +28°C° 0,4 mm 8 m/S 744 mmHg 68%
    15:00 +28°C° 1,3 mm 7 m/S 743 mmHg 68%
    16:00 +28°C° 1,3 mm 7 m/S 743 mmHg 68%
    17:00 +28°C° 1,3 mm 7 m/S 742 mmHg 68%
    18:00 +27°C° 0,2 mm 6 m/S 742 mmHg 73%
    19:00 +26°C° 0,2 mm 5 m/S 742 mmHg 78%
    20:00 +23°C° 0,2 mm 5 m/S 742 mmHg 84%
    21:00 +23°C° 0,1 mm 4 m/S 742 mmHg 85%
    22:00 +24°C° 0,1 mm 3 m/S 742 mmHg 86%
    23:00 +22°C° 0,1 mm 3 m/S 742 mmHg 87%
    Mehr zeigen